This demonstration page uses our WeatherBlox Daily Observations layout. Learn more.

Left ArrowRight Arrow

39.92423, -83.80882

Hourly Observations for June 30, 2021

Temp ( °F °C ) Dew Point ( °F °C ) Humidity (%) Winds ( mph kmh ) Pressure ( in mb ) Visibility ( mi km ) Precip ( " mm )
12:46 am 00:46 Mostly Cloudy with Nearby Thunderstorms 73 23 N/A N/A SSW 5 7 30.14 1021 10 16 N/A
12:56 am 00:56 Mostly Cloudy with Thunderstorms 73 23 N/A N/A S 5 7 30.16 1021 10 16 N/A
1:28 am 01:28 Mostly Cloudy with Light Rain 73 23 N/A N/A N N/A 30.14 1021 10 16 0.02 0.51
1:56 am 01:56 Mostly Clear 73 23 N/A N/A N N/A 30.14 1021 10 16 0.02 0.51
2:56 am 02:56 Hazy 72 22 N/A N/A ESE 3 6 30.12 1020 5 8 N/A
3:56 am 03:56 Clear 73 23 N/A N/A SSE 7 11 30.10 1019 9 14 0.01 0.25
4:56 am 04:56 Partly Cloudy 72 22 N/A N/A S 5 7 30.11 1020 9 14 N/A
5:56 am 05:56 Partly Cloudy 72 22 N/A N/A WNW 5 7 30.11 1020 7 11 N/A
6:56 am 06:56 Hazy 72 22 N/A N/A N N/A 30.12 1020 4 6 N/A
7:56 am 07:56 Sunny 73 23 N/A N/A N N/A 30.11 1020 7 11 N/A
8:20 am 08:20 Partly Cloudy with Nearby Thunderstorms 77 25 75 24 94 94 SW 3 6 30.09 1019 10 16 N/A
8:56 am 08:56 Cloudy with Strong Thunderstorms 71 21.7 71 21.7 100 100 W 17 28 30.17 1022 3 5 0.15 3.81
9:00 am 09:00 Cloudy with Strong Thunderstorms 70 21 N/A N/A S 8 13 30.15 1021 2 3 0.20 5.08
9:16 am 09:16 Cloudy with Strong Thunderstorms 70 21 N/A N/A W 15 24 30.15 1021 3 5 0.25 6.35
9:27 am 09:27 Cloudy with Strong Thunderstorms 70 21 N/A N/A VRB 5 7 30.17 1022 3 4 0.27 6.86
9:34 am 09:34 Cloudy with Strong Thunderstorms 70 21 N/A N/A W 17 28 30.18 1022 2 3 0.29 7.37
10:08 am 10:08 Cloudy with Thunderstorms 70 21 N/A N/A N 8 13 30.14 1021 9 14 0.02 0.51
10:39 am 10:39 Cloudy with Light Rain 72 22 N/A N/A W 5 7 30.12 1020 10 16 0.06 1.52
10:56 am 10:56 Mostly Cloudy with Light Rain 72 22 N/A N/A W 6 9 30.14 1021 10 16 0.08 2.03
11:56 am 11:56 Mostly Cloudy with Light Rain 73 23 N/A N/A undefined N/A 30.13 1020 10 16 0.07 1.78
12:56 pm 12:56 Mostly Cloudy 77 25 74 23.3 90 90 W 12 19 30.11 1020 10 16 0.09 2.29
1:56 pm 13:56 Sunny 80 26.7 73 22.8 79 79 SW 12 19 30.09 1019 10 16 0.40 10.16
2:56 pm 14:56 Sunny 79 26.1 73 22.8 82 82 WNW 14 22 30.09 1019 10 16 N/A
3:56 pm 15:56 Mostly Sunny 79 26.1 74 23.3 85 85 WNW 7 11 30.08 1019 10 16 N/A
4:56 pm 16:56 Cloudy 78 25.6 73 22.8 85 85 WNW 8 13 30.09 1019 10 16 N/A
5:56 pm 17:56 Mostly Sunny 78 25.6 74 23.3 87 87 NNW 8 13 30.06 1018 10 16 N/A
6:56 pm 18:56 Partly Cloudy 79 26.1 74 23.3 85 85 WNW 6 9 30.04 1017 10 16 0.00 0.00
7:56 pm 19:56 Sunny 78 25.6 74 23.3 87 87 WNW 5 7 30.04 1017 10 16 N/A
8:56 pm 20:56 Mostly Cloudy 76 24.4 76 24.4 100 100 NNW 5 7 30.03 1017 10 16 N/A
9:56 pm 21:56 Mostly Cloudy 75 24 N/A N/A N N/A 30.04 1017 10 16 N/A
10:56 pm 22:56 Mostly Cloudy 73 23 N/A N/A N N/A 30.04 1017 10 16 N/A
11:21 pm 23:21 Mostly Cloudy 73 23 N/A N/A SSW 3 6 30.02 1017 10 16 N/A
11:56 pm 23:56 Cloudy 73 23 N/A N/A SW 8 13 30.03 1017 10 16 N/A

Powered by AerisWeather